Fort Polk, LA

9:26 PM CDT on August 17, 2017 (GMT -0500)
Polk Army Air Field

Weather History for KPOE - December, 2013

Change the Weather History Date:

Tuesday, December 10, 2013

  Actual Average Record
Temperature  
Mean Temperature 40 °F -  
Max Temperature 46 °F 59 °F 80 °F (2007)
Min Temperature 34 °F 40 °F 34 °F (2013)
Degree Days  
Heating Degree Days 24    
Moisture  
Dew Point 32 °F    
Average Humidity 82    
Maximum Humidity 100    
Minimum Humidity 54    
Precipitation  
Precipitation 0.00 in - - ()
Sea Level Pressure  
Sea Level Pressure 30.36 in    
Wind  
Wind Speed 11 mph (North)    
Max Wind Speed 18 mph    
Max Gust Speed 28 mph    
Visibility 10 miles    
Events      
Averages and records for this station are not official NWS values.
T = Trace of Precipitation, MM = Missing Value Source: NWS Daily Summary

Daily Weather History Graph

Daily Weather History Graph

Search for Another Location

Airport or City:

Trip Planner

Search our weather history database for the weather conditions in past years. The results will help you decide how hot, cold, wet, or windy it might be!

Date:

Astronomy

Dec. 10, 2013 Rise Set
Actual Time 7:00 AM CST 5:11 PM CST
Civil Twilight 6:33 AM CST 5:37 PM CST
Nautical Twilight 6:03 AM CST 6:07 PM CST
Astronomical Twilight 5:34 AM CST 6:37 PM CST
Moon 12:52 PM CST (12/10) 12:41 AM CST (12/10)
Length of Visible Light 11h 03m
Length of Day
10h 10m
Waxing Gibbous, 62% of the Moon is Illuminated
Dec 10
Waxing Gibbous
Dec 17
Full
Dec 25
Last Quarter
Jan 1
New
Jan 7
First Quarter

Hourly Weather History & Observations

Time (CST) Temp. Windchill Dew Point Humidity Pressure Visibility Wind Dir Wind Speed Gust Speed Precip Events Conditions
12:13 AM 35.6 °F 28.0 °F 35.6 °F 100% 30.27 in 10.0 mi NNW 10.4 mph - N/A   Overcast
12:38 AM 35.6 °F 26.2 °F 33.8 °F 93% 30.27 in 10.0 mi North 15.0 mph 23.0 mph N/A   Overcast
12:55 AM 36.0 °F 26.7 °F 34.0 °F 93% 30.30 in 10.0 mi NNW 15.0 mph 23.0 mph N/A   Overcast
1:07 AM 35.6 °F 27.1 °F 33.8 °F 93% 30.28 in 10.0 mi NNW 12.7 mph - N/A   Overcast
1:19 AM 35.6 °F 27.1 °F 33.8 °F 93% 30.28 in 10.0 mi North 12.7 mph 19.6 mph N/A   Overcast
1:47 AM 35.6 °F 28.6 °F 33.8 °F 93% 30.28 in 10.0 mi North 9.2 mph - N/A   Overcast
1:55 AM 36.0 °F 28.5 °F 34.0 °F 93% 30.30 in 10.0 mi NNW 10.4 mph - N/A   Overcast
2:55 AM 35.1 °F 26.9 °F 34.0 °F 96% 30.32 in 10.0 mi North 11.5 mph - N/A   Overcast
3:10 AM 35.6 °F 29.9 °F 33.8 °F 93% 30.31 in 10.0 mi North 6.9 mph 17.3 mph N/A   Overcast
3:24 AM 35.6 °F 27.5 °F 33.8 °F 93% 30.31 in 10.0 mi NNW 11.5 mph - N/A   Overcast
3:37 AM 35.6 °F 26.2 °F 33.8 °F 93% 30.31 in 10.0 mi NNW 15.0 mph - N/A   Overcast
3:44 AM 35.6 °F 25.9 °F 33.8 °F 93% 30.32 in 10.0 mi NNW 16.1 mph 21.9 mph N/A   Overcast
3:55 AM 35.1 °F 24.5 °F 32.0 °F 89% 30.35 in 10.0 mi North 18.4 mph 27.6 mph N/A   Overcast
4:55 AM 35.1 °F 26.9 °F 32.0 °F 89% 30.36 in 10.0 mi North 11.5 mph 20.7 mph N/A   Overcast
5:55 AM 35.1 °F 25.9 °F 32.0 °F 89% 30.38 in 9.0 mi North 13.8 mph 21.9 mph N/A   Overcast
6:55 AM 35.1 °F 27.4 °F 32.0 °F 89% 30.39 in 10.0 mi North 10.4 mph - N/A   Overcast
7:55 AM 35.1 °F 26.4 °F 30.9 °F 85% 30.41 in 10.0 mi North 12.7 mph 18.4 mph N/A   Overcast
8:55 AM 35.1 °F 27.4 °F 30.9 °F 85% 30.43 in 10.0 mi NNE 10.4 mph - N/A   Overcast
9:55 AM 36.0 °F 28.5 °F 30.9 °F 82% 30.44 in 10.0 mi NNE 10.4 mph - N/A   Overcast
10:35 AM 37.4 °F 31.4 °F 30.2 °F 75% 30.42 in 10.0 mi NNE 8.1 mph - N/A   Mostly Cloudy
10:55 AM 39.9 °F 32.1 °F 30.0 °F 68% 30.43 in 10.0 mi North 13.8 mph 17.3 mph N/A   Mostly Cloudy
11:12 AM 39.2 °F 33.0 °F 30.2 °F 70% 30.41 in 10.0 mi NNE 9.2 mph - N/A   Partly Cloudy
11:55 AM 42.1 °F 36.6 °F 28.9 °F 60% 30.41 in 10.0 mi NE 9.2 mph 20.7 mph N/A   Clear
12:25 PM 42.8 °F 35.8 °F 30.2 °F 61% 30.38 in 10.0 mi NNE 13.8 mph - N/A   Clear
12:55 PM 44.1 °F 38.6 °F 30.0 °F 58% 30.38 in 10.0 mi NE 10.4 mph - N/A   Clear
1:55 PM 45.0 °F 39.7 °F 30.9 °F 58% 30.35 in 10.0 mi NNE 10.4 mph - N/A   Clear
2:55 PM 46.9 °F - 30.9 °F 54% 30.35 in 10.0 mi NNE 8.1 mph - N/A   Clear
3:55 PM 46.0 °F 41.0 °F 30.9 °F 56% 30.36 in 10.0 mi NE 10.4 mph - N/A   Clear
4:55 PM 44.1 °F 41.5 °F 32.0 °F 63% 30.37 in 10.0 mi NNE 4.6 mph - N/A   Clear
5:55 PM 37.9 °F - 34.0 °F 86% 30.37 in 10.0 mi Calm Calm - N/A   Clear
6:55 PM 36.0 °F 33.3 °F 34.0 °F 93% 30.37 in 10.0 mi NNE 3.5 mph - N/A   Clear
7:55 PM 36.0 °F 33.3 °F 32.0 °F 86% 30.38 in 10.0 mi NNE 3.5 mph - N/A   Clear
8:55 PM 37.0 °F - 32.0 °F 82% 30.38 in 10.0 mi Calm Calm - N/A   Clear
9:55 PM 35.1 °F 32.2 °F 30.9 °F 85% 30.38 in 10.0 mi ENE 3.5 mph - N/A   Clear
10:55 PM 35.1 °F 32.2 °F 30.0 °F 82% 30.38 in 10.0 mi ENE 3.5 mph - N/A   Clear
11:55 PM 34.0 °F 31.0 °F 30.0 °F 85% 30.39 in 10.0 mi ENE 3.5 mph - N/A   Clear